Weather History for Whitefield, NH

Change the Weather History Date:

Wednesday, January 2, 2013

  Actual Average Record
Temperature  
Mean Temperature -1 °F -  
Max Temperature 14 °F 26 °F 41 °F (2011)
Min Temperature -16 °F 6 °F -17 °F (1999)
Degree Days  
Heating Degree Days 66    
Moisture  
Dew Point -4 °F    
Average Humidity 70    
Maximum Humidity 85    
Minimum Humidity 56    
Precipitation  
Precipitation 0.00 in - - ()
Sea Level Pressure  
Sea Level Pressure 29.97 in    
Wind  
Wind Speed 5 mph (WNW)    
Max Wind Speed 15 mph    
Max Gust Speed 22 mph    
Visibility 8 miles    
Events Snow    
Averages and records for this station are not official NWS values.
T = Trace of Precipitation, MM = Missing Value Source: NWS Daily Summary

Daily Weather History Graph

Daily Weather History Graph

Search for Another Location

Airport:

Trip Planner

Search our weather history database for the weather conditions in past years. The results will help you decide how hot, cold, wet, or windy it might be!

Date:

Astronomy

Jan. 02, 2013 Rise Set
Actual Time 7:22 AM EST 4:18 PM EST
Civil Twilight 6:49 AM EST 4:51 PM EST
Nautical Twilight 6:12 AM EST 5:28 PM EST
Astronomical Twilight 5:37 AM EST 6:03 PM EST
Moon 10:01 PM EST (1/2) 9:50 AM EST (1/2)
Length of Visible Light 10h 02m
Length of Day
8h 56m
Waning Gibbous, 75% of the Moon is Illuminated
Jan 2
Waning Gibbous
Jan 4
Last Quarter
Jan 11
New
Jan 18
First Quarter
Jan 26
Full

Hourly Weather History & Observations

Time (EST) Temp. Windchill Dew Point Humidity Pressure Visibility Wind Dir Wind Speed Gust Speed Precip Events Conditions
12:52 AM 7.0 °F 0.1 °F -0.0 °F 73% 29.90 in 4.0 mi SW 3.5 mph - 0.00 in Snow Light Snow
1:52 AM 6.1 °F -0.9 °F -0.0 °F 76% 29.90 in 8.0 mi SW 3.5 mph - 0.00 in   Overcast
2:52 AM 3.9 °F -3.4 °F -0.9 °F 80% 29.90 in 7.0 mi SSW 3.5 mph - 0.00 in   Overcast
4:52 AM 1.9 °F -5.6 °F -2.9 °F 80% 29.88 in 10.0 mi SW 3.5 mph - N/A   Overcast
5:52 AM -0.9 °F -8.9 °F -5.1 °F 83% 29.88 in 6.0 mi WNW 3.5 mph - 0.00 in Snow Light Snow
6:52 AM -2.9 °F - -8.0 °F 79% 29.87 in 8.0 mi Calm Calm - 0.00 in Snow Light Snow
7:52 AM -0.9 °F - -5.1 °F 83% 29.88 in 3.0 mi Calm Calm - 0.00 in Snow Light Snow
8:21 AM 1.4 °F - -4.0 °F 78% 29.80 in 2.5 mi Calm Calm - 0.00 in Snow Light Snow
8:52 AM 3.9 °F - -0.9 °F 80% 29.89 in 2.5 mi Calm Calm - 0.00 in Snow Light Snow
9:01 AM 3.2 °F - -0.4 °F 85% 29.81 in 4.0 mi Calm Calm - 0.00 in Snow Light Snow
10:03 AM 8.6 °F -1.3 °F 3.2 °F 79% 29.84 in 3.0 mi West 5.8 mph - 0.00 in Snow Light Snow
10:12 AM 8.6 °F 0.1 °F 3.2 °F 79% 29.84 in 2.0 mi WNW 4.6 mph - 0.00 in Snow Light Snow
10:30 AM 10.4 °F 4.0 °F 3.2 °F 73% 29.84 in 3.0 mi West 3.5 mph - 0.00 in Snow Light Snow
10:52 AM 10.9 °F 4.7 °F 3.9 °F 73% 29.92 in 5.0 mi West 3.5 mph - 0.00 in Snow Light Snow
11:19 AM 12.2 °F -1.0 °F 3.2 °F 67% 29.84 in 1.8 mi West 10.4 mph - 0.00 in Snow Light Snow
11:48 AM 12.0 °F 1.5 °F 3.9 °F 70% 29.91 in 3.0 mi West 6.9 mph - 0.00 in Snow Light Snow
12:41 PM 14.0 °F -0.2 °F 1.4 °F 57% 29.84 in 9.0 mi NW 12.7 mph - 0.00 in   Overcast
12:52 PM 14.0 °F -0.8 °F 3.0 °F 62% 29.92 in 10.0 mi West 13.8 mph 19.6 mph 0.00 in   Overcast
1:42 PM 10.4 °F -3.3 °F -0.4 °F 62% 29.88 in 10.0 mi NW 10.4 mph 18.4 mph N/A   Overcast
1:52 PM 12.0 °F 0.5 °F -0.0 °F 59% 29.96 in 10.0 mi North 8.1 mph - N/A   Overcast
2:52 PM 9.0 °F -7.9 °F -4.0 °F 56% 30.00 in 10.0 mi NW 15.0 mph 21.9 mph N/A   Clear
3:52 PM 6.1 °F -9.5 °F -6.0 °F 58% 30.04 in 10.0 mi NW 11.5 mph 20.7 mph N/A   Partly Cloudy
4:08 PM 6.8 °F -10.0 °F -5.8 °F 56% 29.96 in 10.0 mi NW 13.8 mph - N/A   Mostly Cloudy
4:19 PM 5.0 °F -6.9 °F -5.8 °F 61% 29.98 in 10.0 mi NNW 6.9 mph - N/A   Scattered Clouds
4:27 PM 5.0 °F -5.6 °F -5.8 °F 61% 29.99 in 10.0 mi NNW 5.8 mph - N/A   Mostly Cloudy
4:36 PM 3.2 °F -7.8 °F -5.8 °F 66% 29.99 in 10.0 mi NNW 5.8 mph - N/A   Mostly Cloudy
4:52 PM 3.9 °F -5.3 °F -7.1 °F 60% 30.10 in 10.0 mi Variable 4.6 mph - N/A   Overcast
5:16 PM 1.4 °F -12.5 °F -7.6 °F 66% 30.02 in 10.0 mi NNW 8.1 mph - N/A   Scattered Clouds
5:52 PM -0.0 °F -7.9 °F -9.0 °F 66% 30.14 in 10.0 mi NW 3.5 mph - N/A   Clear
6:52 PM -0.9 °F -14.1 °F -11.0 °F 62% 30.16 in 10.0 mi WNW 6.9 mph - N/A   Clear
7:52 PM -4.0 °F -12.4 °F -11.9 °F 69% 30.17 in 10.0 mi West 3.5 mph - N/A   Clear
8:52 PM -9.9 °F - -15.0 °F 78% 30.19 in 9.0 mi Calm Calm - N/A   Clear
9:52 PM -11.9 °F - -18.0 °F 74% 30.21 in 10.0 mi Calm Calm - N/A   Clear
10:52 PM -16.1 °F - -20.0 °F 82% 30.20 in 10.0 mi Calm Calm - N/A   Clear
11:52 PM -16.1 °F - -22.0 °F 74% 30.22 in 10.0 mi Calm Calm - N/A   Clear